カタログに戻る

COMSTAR 1

運用中通信GEO
NORAD 8838·PAYLOAD·🇺🇸 United States

打ち上げ May 13, 1976 から Cape Canaveral Space Force Station

Loading…

TLE

最新Source: Space-Track

元期: Sep 14, 2026, 07:03 UTC

1 08838U 76042A   26257.29379773  .00000040  00000-0  00000-0 0  9999
2 08838   7.7857 304.0577 0004434 336.4164 198.8247  0.99826123121464

AllMySatでCOMSTAR 1をリアルタイム追跡

Download on the App Store